Усть-Среднекан

Россия / Магаданская область     62°26′36″N   152°19′20″E
темп.,
°C
ветер,
м/с
пор.,
м/с
влажн.,
%
обл.,
%
осадки,
мм/ч
давл.,
гПа
погр.,
м
11 мая, вт
вт1123:00−5ю229486 0.0 101810
02:00−6ююз219527 0.0 101810
05:00−6юз119576 0.0 101920
08:00−3зюз0091100 0.0 1019118
11:00−1с119079 0.1 1019270
14:00+1св118298 0.1 1018522
17:00+2ссв017355 0.1 1018631
20:00+1с008194 0.0 101810
12 мая, ср
ср1223:00−1с118470 0.1 101912
02:00−2с118595 0.0 101913
05:00−2ссз018689 0.0 101912
08:000зсз127318 0.0 1019324
11:00+1с126089 0.0 1018995
14:00+3ссв225596 0.0 10171254
17:00+3ссв125596 0.0 10161134
20:00+2в117056 0.0 101510
13 мая, чт
чт1323:000ю3273100 0.0 101518
02:00−1ююв3372100 0.0 101433
05:00−1ююв3372100 0.0 101263
08:00+1юв226326 0.0 1011256
11:00+4юв225711 0.0 1008618
14:00+7ююв3355100 0.0 1006798
17:00+7вюв1254100 0.0 1004549
20:00+6всв1166100 0.0 100320
14 мая, пт
пт1423:00+4ссв1180100 0.3 100414
02:00+1с3499100 3.6 1006146
05:000ссз4998100 7.9 1008522
08:00−1ссз4895100 2.2 1011641
11:00−1сз2593100 3.6 1013555
14:00+1с4686100 0.7 1013758
17:00+1с4574100 1.0 1014912
20:00+2ссв356775 0.1 1015772
15 мая, сб
сб1523:00−1с118038 0.1 101610
02:00−1ю11815 0.0 101710
05:00−1ю22805 0.0 101726
08:00+1ююв22675 0.0 1017371
11:00+4ююв32565 0.0 1017797
14:00+6ю33485 0.0 10161029
17:00+7ю33444 0.0 10151038
20:00+7юв23475 0.0 1015464